Location: Newark
(35.6799°N, 139.7636°E)
Time: 05:30:24
(UTC+00:00)

Explorer 7 - Pass Details

Date: 08 December 2019
Orbit: 485 x 679 km, 50.3° (Epoch: 26 January)

Event Time Altitude Azimuth Distance (km) Brightness Sun altitude
Rises 06:37:16 0° 224° (SW) 2,956 12.7 7.8°
Reaches altitude 10° 06:39:34 10° 223° (SW) 2,068 12.0 7.5°
Maximum altitude 06:44:22 77° 138° (SE) 694 7.5 6.7°
Drops below altitude 10° 06:49:17 10° 53° (NE) 2,117 9.2 5.8°
Sets 06:51:39 0° 52° (NE) 3,031 9.9 5.4°
